Ana Sayfa
METAR-TAF:

METAR-TAF

Havaalanları :

Concord, Kuzey Carolina, Amerika Birleşik Devletleri

Enlem: 35-23-07N, Boylam: 080-42-35W, yükseklik: 210 m

Güncel hava durumu gözlemi

Rapor saat 18:50 UTC de 36 dakika önce yapıldı.
Rüzgar güneydan 4 kt
Sıcaklık 29°C
Nem 62%
Basınç 1014 hPa
Görüş mesafesi: 16.1 km
2900 ft yükseklikte parçalı bulutlu

METAR: KJQF 051850Z 18004KT 10SM SCT029 29/21 A2995

Saat: 15:26 (19:26 UTC)


TAF: eksik

4.000'den fazla havaalanı için hava durumu gözlemleri ve tahminleri (METAR ve TAF raporları).

Kullanılabilir istasyonlar harita üzerinde sarı ve kırmızı noktalarla gösterilir.

İstasyonun adını görmek için fareyi noktanın üzerinde gezdirin.

Sonrasında hava gözlem ve tahminlerini görmek için tıklayın.

Haritayı değiştirmek için: yaklaştırmak için siyah artı işaretli yeşil düğmeye ve uzaklaştırmak için de eksi işaretli düğmeye hızla tıklayın; bitişik haritalar için yeşil okları kullanın.


METAR-TAF: